Find Starlink 11444

NORAD ID: 62409 Int'l Des: 2024-249 Owner: SPXS Country: US Constellation: starlink operational
LEOCIRCULAR

リアルタイム位置

3D地球を読み込み中...

Starlink 11444について

説明を読み込み中...

次回通過

Passes for default location (London). Set your location on the main map for personalized predictions.

高度履歴

Loading altitude history...

軌道要素

1 62409U 24249A 26124.23924747 .00168740 00000-0 12889-2 0 9991
2 62409 42.9968 193.1326 0001644 238.1831 121.8877 15.70897350 78214
Epoch: May 4, 2026 • Age: 11 hours

現在のステータス

高度 354.7 km
速度 7.70 km/s
衛星直下点 8.98°N, 118.97°W
打ち上げ日 Dec 23, 2024
運用期間 1.3 years
タイプ internet

技術仕様

分類 Payload
質量 960.00 kg
乾燥質量 910.00 kg
総質量 960.00 kg
長さ 0.30 m
直径 4.10 m
スパン 29.00 m
形状 Box + pan
製造者 SPXS
バスタイプ Starlink V2MD
フェーズステータス In Orbit
所有者/国 SPXS/US

Most Searched